GW3419 Weather Reports


Display with metric or nautical units.
time (UTC)temp
F
wind
direction
speed
MPH
gust
MPH
rain 1hr
in
rain 24hr
in
rain mn
in
humidity
%
barometer
mb
20260506025658 43 276 1.0 8.0 0.00 0.00 0.00 53 1006.6
20260506025154 43 302 3.0 5.0 0.00 0.00 0.00 53 1006.5
20260506024652 43 220 1.0 4.0 0.00 0.00 0.00 54 1006.7
20260506024148 43 246 0.0 5.0 0.00 0.00 0.00 56 1006.6
20260506023644 43 318 2.0 3.0 0.00 0.00 0.00 55 1006.6
20260506023142 44 317 3.0 5.0 0.00 0.00 0.00 54 1006.3
20260506022639 44 295 2.0 7.0 0.00 0.00 0.00 53 1006.3
20260506022136 44 282 1.0 4.0 0.00 0.00 0.00 53 1006.3
20260506021634 45 221 1.0 5.0 0.00 0.00 0.00 51 1006.3
20260506021131 45 303 2.0 10.0 0.00 0.00 0.00 50 1006.5
20260506020628 46 252 2.0 8.0 0.00 0.00 0.00 49 1006.2
20260506020125 46 309 4.0 8.0 0.00 0.00 0.00 49 1006.1
20260506015623 46 198 0.0 10.0 0.00 0.00 0.00 49 1006.1
20260506015119 46 299 5.0 8.0 0.00 0.00 0.00 48 1006.0
20260506014612 46 304 3.0 7.0 0.00 0.00 0.00 48 1006.1
20260506014107 46 303 6.0 15.0 0.00 0.00 0.00 47 1006.1
20260506013606 46 236 0.0 10.0 0.00 0.00 0.00 47 1005.7
20260506013102 46 297 3.0 11.0 0.00 0.00 0.00 47 1005.8
20260506012558 46 288 2.0 17.0 0.00 0.00 0.00 47 1005.8
20260506012054 47 316 5.0 9.0 0.00 0.00 0.00 47 1005.6
20260506011553 47 286 6.0 14.0 0.00 0.00 0.00 46 1005.6
20260506011048 47 311 5.0 12.0 0.00 0.00 0.00 46 1005.7
20260506010542 47 255 1.0 14.0 0.00 0.00 0.00 46 1005.7
20260506010038 47 319 4.0 7.0 0.00 0.00 0.00 46 1005.7
20260506005536 47 296 9.0 10.0 0.00 0.00 0.00 45 1005.6
20260506005031 47 294 5.0 9.0 0.00 0.00 0.00 45 1005.5
20260506004529 47 56 1.0 9.0 0.00 0.00 0.00 46 1005.4
20260506004026 47 300 7.0 10.0 0.00 0.00 0.00 44 1005.2
20260506003522 48 297 3.0 15.0 0.00 0.00 0.00 43 1005.2
20260506003018 48 321 8.0 15.0 0.00 0.00 0.00 42 1005.5
20260506002514 48 328 5.0 16.0 0.00 0.00 0.00 43 1005.5
20260506002010 48 333 5.0 14.0 0.00 0.00 0.00 42 1005.5
20260506001507 49 338 5.0 18.0 0.00 0.00 0.00 42 1004.9
20260506001004 49 287 7.0 15.0 0.00 0.00 0.00 42 1005.1
20260506000502 49 308 3.0 11.0 0.00 0.00 0.00 43 1005.0
20260505235958 49 247 2.0 16.0 0.00 0.00 0.00 42 1005.0
20260505235456 49 324 6.0 17.0 0.00 0.00 0.00 41 1005.0
20260505234953 49 138 2.0 10.0 0.00 0.00 0.00 43 1005.0
20260505234450 49 310 8.0 14.0 0.00 0.00 0.00 42 1005.0
20260505233947 49 277 4.0 14.0 0.00 0.00 0.00 42 1004.9
20260505233445 49 215 3.0 13.0 0.00 0.00 0.00 43 1005.0
20260505232942 50 298 3.0 10.0 0.00 0.00 0.00 42 1004.9
20260505232440 49 319 6.0 13.0 0.00 0.00 0.00 43 1005.1
20260505231937 48 317 5.0 18.0 0.00 0.00 0.00 43 1005.0
20260505231434 49 322 9.0 20.0 0.00 0.00 0.00 43 1005.1
20260505230932 49 337 4.0 17.0 0.00 0.00 0.00 42 1005.0
20260505230429 50 235 3.0 13.0 0.00 0.00 0.00 43 1005.1
20260505225925 50 286 5.0 12.0 0.00 0.00 0.00 43 1005.0
20260505225423 50 285 7.0 18.0 0.00 0.00 0.00 41 1005.4
20260505224918 50 293 5.0 11.0 0.00 0.00 0.00 42 1005.1
20260505224416 50 238 9.0 18.0 0.00 0.00 0.00 41 1005.4
20260505223913 49 350 3.0 9.0 0.00 0.00 0.00 44 1005.1
20260505223410 49 307 9.0 9.0 0.00 0.00 0.00 41 1005.2
20260505222906 49 233 0.0 10.0 0.00 0.00 0.00 43 1005.2
20260505222402 49 238 4.0 15.0 0.00 0.00 0.00 42 1005.2
20260505221859 49 3 3.0 21.0 0.00 0.00 0.00 43 1005.1
20260505221355 50 318 3.0 11.0 0.00 0.00 0.00 43 1005.0
20260505220853 50 328 6.0 11.0 0.00 0.00 0.00 42 1005.1
20260505220350 50 295 5.0 16.0 0.00 0.00 0.00 42 1005.4
20260505215847 50 351 4.0 11.0 0.00 0.00 0.00 40 1004.8
20260505215345 50 324 3.0 15.0 0.00 0.00 0.00 41 1005.0
20260505214843 51 267 3.0 20.0 0.00 0.00 0.00 40 1005.1
20260505214340 50 256 0.0 16.0 0.00 0.00 0.00 39 1005.2
20260505213837 50 265 7.0 12.0 0.00 0.00 0.00 41 1005.2
20260505213335 50 317 5.0 15.0 0.00 0.00 0.00 40 1005.4
20260505212831 50 128 3.0 8.0 0.00 0.00 0.00 39 1005.1
20260505212328 50 267 4.0 13.0 0.00 0.00 0.00 40 1005.4
20260505211824 51 58 3.0 14.0 0.00 0.00 0.00 40 1005.2
20260505211322 50 303 5.0 22.0 0.00 0.00 0.00 39 1005.1
20260505210818 50 311 4.0 16.0 0.00 0.00 0.00 40 1005.2
20260505210315 50 254 6.0 13.0 0.00 0.00 0.00 39 1005.0
20260505205812 50 347 5.0 17.0 0.00 0.00 0.00 37 1005.2
20260505205311 50 187 3.0 15.0 0.00 0.00 0.00 37 1005.1
20260505204807 52 301 5.0 7.0 0.00 0.00 0.00 35 1005.2
20260505204305 54 21 3.0 12.0 0.00 0.00 0.00 36 1005.1
20260505203802 52 310 3.0 6.0 0.00 0.00 0.00 37 1005.0
20260505203259 51 340 8.0 13.0 0.00 0.00 0.00 37 1005.4
20260505202755 52 39 3.0 18.0 0.00 0.00 0.00 35 1005.6
20260505202251 51 310 2.0 15.0 0.00 0.00 0.00 37 1005.4
20260505201747 51 223 3.0 12.0 0.00 0.00 0.00 37 1005.6
20260505201245 51 112 2.0 12.0 0.00 0.00 0.00 36 1005.4
20260505200743 53 315 2.0 13.0 0.00 0.00 0.00 37 1005.4
20260505200240 52 224 3.0 19.0 0.00 0.00 0.00 36 1005.5
20260505195735 52 308 3.0 15.0 0.00 0.00 0.00 36 1005.8
20260505195233 51 113 2.0 18.0 0.00 0.00 0.00 37 1005.7
20260505194730 50 224 0.0 13.0 0.00 0.00 0.00 37 1005.6
20260505194227 51 315 8.0 14.0 0.00 0.00 0.00 36 1005.8
20260505193722 51 344 4.0 11.0 0.00 0.00 0.00 36 1005.6
20260505193220 52 316 7.0 13.0 0.00 0.00 0.00 34 1005.5
20260505192718 52 273 5.0 15.0 0.00 0.00 0.00 34 1005.7
20260505192216 53 317 5.0 16.0 0.00 0.00 0.00 35 1005.6
20260505191714 51 156 5.0 15.0 0.00 0.00 0.00 36 1005.8
20260505191212 50 279 5.0 16.0 0.00 0.00 0.00 37 1005.8
20260505190708 50 118 3.0 17.0 0.00 0.00 0.00 37 1005.7
20260505190207 50 324 9.0 26.0 0.00 0.00 0.00 37 1005.7
20260505185704 50 251 4.0 20.0 0.00 0.00 0.00 37 1005.7
20260505185201 50 322 6.0 18.0 0.00 0.00 0.00 37 1005.7
20260505184657 50 47 4.0 13.0 0.00 0.00 0.00 37 1005.7
20260505184154 49 170 5.0 20.0 0.00 0.00 0.00 39 1005.8
20260505183651 49 329 0.0 17.0 0.00 0.00 0.00 39 1005.7
20260505183149 50 301 3.0 7.0 0.00 0.00 0.00 38 1005.5
20260505182645 50 324 4.0 22.0 0.00 0.00 0.00 37 1005.7
20260505182142 51 188 4.0 20.0 0.00 0.00 0.00 38 1005.5
20260505181638 50 211 2.0 15.0 0.00 0.00 0.00 37 1005.6
20260505181136 51 356 3.0 12.0 0.00 0.00 0.00 35 1005.5
20260505180632 50 156 3.0 11.0 0.00 0.00 0.00 36 1005.6
20260505180129 50 1 9.0 10.0 0.00 0.00 0.00 36 1005.7
20260505175625 50 116 3.0 14.0 0.00 0.00 0.00 35 1005.4
20260505175122 51 356 3.0 13.0 0.00 0.00 0.00 37 1005.2
20260505174618 50 199 6.0 21.0 0.00 0.00 0.00 35 1005.4
20260505174115 51 276 5.0 11.0 0.00 0.00 0.00 36 1005.6
20260505173611 51 236 3.0 19.0 0.00 0.00 0.00 40 1005.5
20260505173103 50 294 15.0 19.0 0.00 0.00 0.00 38 1005.6
20260505172600 48 178 2.0 12.0 0.00 0.00 0.00 39 1005.5
20260505172056 49 299 11.0 23.0 0.00 0.00 0.00 37 1005.7
20260505171551 51 240 2.0 9.0 0.00 0.00 0.00 37 1005.6
20260505171049 50 267 5.0 11.0 0.00 0.00 0.00 37 1005.5
20260505170545 49 357 4.0 24.0 0.00 0.00 0.00 36 1005.6
20260505170041 49 326 7.0 18.0 0.00 0.00 0.00 37 1005.7
20260505165531 50 273 4.0 14.0 0.00 0.00 0.00 37 1005.6
20260505165027 48 313 5.0 16.0 0.00 0.00 0.00 37 1005.5
20260505164523 49 313 15.0 18.0 0.00 0.00 0.00 37 1005.2
20260505164021 48 10 6.0 16.0 0.00 0.00 0.00 38 1005.4
20260505163519 50 347 5.0 15.0 0.00 0.00 0.00 38 1005.8
20260505163015 48 340 7.0 11.0 0.00 0.00 0.00 40 1005.5
20260505162508 50 94 1.0 16.0 0.00 0.00 0.00 39 1005.6
20260505162005 50 59 3.0 13.0 0.00 0.00 0.00 37 1005.7
20260505161456 49 138 2.0 15.0 0.00 0.00 0.00 39 1005.6
20260505160954 48 168 4.0 15.0 0.00 0.00 0.00 42 1005.8
20260505160452 48 189 3.0 10.0 0.00 0.00 0.00 43 1005.7
20260505152928 48 327 3.0 16.0 0.00 0.00 0.00 42 1005.6
20260505152426 48 86 4.0 16.0 0.00 0.00 0.00 43 1005.2
20260505151925 47 273 4.0 18.0 0.00 0.00 0.00 40 1005.1
20260505151416 47 350 6.0 15.0 0.00 0.00 0.00 41 1005.2
20260505150914 46 29 4.0 13.0 0.00 0.00 0.00 44 1005.4
20260505150410 47 315 7.0 12.0 0.00 0.00 0.00 44 1005.4
20260505140334 45 359 2.0 14.0 0.00 0.00 0.00 47 1005.2
20260505130252 43 327 6.0 13.0 0.00 0.00 0.00 58 1004.7
20260505124743 42 245 2.0 10.0 0.00 0.00 0.00 63 1004.7
20260505124240 42 338 1.0 6.0 0.00 0.00 0.00 64 1004.6
20260505123735 41 306 2.0 7.0 0.00 0.00 0.00 66 1004.5
20260505123232 41 318 5.0 10.0 0.00 0.00 0.00 65 1004.5
20260505122728 40 340 3.0 9.0 0.00 0.00 0.00 67 1004.6
20260505122226 40 309 4.0 7.0 0.00 0.00 0.00 68 1004.6
20260505121722 40 245 0.0 7.0 0.00 0.00 0.00 67 1004.7
20260505121219 39 199 0.0 4.0 0.00 0.00 0.00 69 1004.4
20260505120715 39 18 0.0 5.0 0.00 0.00 0.00 70 1004.1
20260505120211 37 301 4.0 7.0 0.00 0.00 0.00 72 1004.0
20260505115705 35 323 1.0 4.0 0.00 0.00 0.00 75 1004.0
20260505115203 35 275 1.0 6.0 0.00 0.00 0.00 75 1003.7
20260505114700 35 342 1.0 5.0 0.00 0.00 0.00 76 1004.0
20260505114156 34 269 2.0 6.0 0.00 0.00 0.00 77 1003.5
20260505113652 34 347 1.0 4.0 0.00 0.00 0.00 77 1003.4
20260505113149 34 19 0.0 5.0 0.00 0.00 0.00 77 1003.4
20260505112645 34 351 0.0 3.0 0.00 0.00 0.00 77 1003.4
20260505112143 33 266 2.0 4.0 0.00 0.00 0.00 78 1003.2
20260505111642 33 337 2.0 4.0 0.00 0.00 0.00 77 1003.2
20260505111139 33 272 0.0 4.0 0.00 0.00 0.00 77 1002.9
20260505110635 34 331 2.0 5.0 0.00 0.00 0.00 76 1003.0
20260505110133 34 330 3.0 4.0 0.00 0.00 0.00 75 1002.8
20260505102108 36 330 3.0 5.0 0.00 0.00 0.00 71 1002.5
20260505101607 36 320 1.0 6.0 0.00 0.00 0.00 71 1002.5
20260505101103 36 337 4.0 7.0 0.00 0.00 0.00 70 1002.4
20260505100559 36 208 0.0 8.0 0.00 0.00 0.00 70 1002.2
20260505100056 36 355 2.0 11.0 0.00 0.00 0.00 70 1002.2
20260505095552 37 138 1.0 6.0 0.00 0.00 0.00 70 1002.4
20260505095049 37 142 2.0 7.0 0.00 0.00 0.00 69 1002.2
20260505094545 37 11 1.0 10.0 0.00 0.00 0.00 69 1002.4
20260505094042 37 307 3.0 11.0 0.00 0.00 0.00 68 1002.4
20260505093538 38 50 2.0 9.0 0.00 0.00 0.00 67 1002.4
20260505093036 38 84 0.0 11.0 0.00 0.00 0.00 66 1002.4
20260505092533 38 353 5.0 7.0 0.00 0.00 0.00 66 1002.1
20260505092032 38 255 0.0 6.0 0.00 0.00 0.00 66 1002.2
20260505091528 38 269 2.0 5.0 0.00 0.00 0.00 66 1002.1
20260505091027 38 151 1.0 8.0 0.00 0.00 0.00 66 1002.1
20260505090524 38 269 2.0 6.0 0.00 0.00 0.00 65 1002.1
20260505090021 38 233 2.0 5.0 0.00 0.00 0.00 66 1002.0
20260505085519 38 265 4.0 5.0 0.00 0.00 0.00 67 1001.7
20260505085017 38 312 4.0 7.0 0.00 0.00 0.00 67 1001.7
20260505084515 38 319 3.0 7.0 0.00 0.00 0.00 67 1001.9
20260505084013 38 319 2.0 5.0 0.00 0.00 0.00 67 1001.9
20260505083510 38 258 2.0 7.0 0.00 0.00 0.00 67 1001.7
20260505083006 38 346 2.0 5.0 0.00 0.00 0.00 67 1001.5
20260505082502 38 245 0.0 5.0 0.00 0.00 0.00 67 1001.4
20260505081959 38 244 2.0 4.0 0.00 0.00 0.00 67 1001.6
20260505081455 38 241 0.0 4.0 0.00 0.00 0.00 66 1001.3
20260505080952 39 188 0.0 8.0 0.00 0.00 0.00 66 1001.4
20260505080448 38 339 3.0 6.0 0.00 0.00 0.00 67 1001.5
20260505075944 38 340 2.0 3.0 0.00 0.00 0.00 66 1001.3
20260505075441 39 246 0.0 3.0 0.00 0.00 0.00 65 1001.6
20260505074938 39 219 2.0 4.0 0.00 0.00 0.00 65 1001.2
20260505074436 39 275 0.0 5.0 0.00 0.00 0.00 64 1001.3
20260505073933 40 279 4.0 5.0 0.00 0.00 0.00 63 1001.4
20260505073430 39 241 4.0 7.0 0.00 0.00 0.00 63 1001.2
20260505072927 39 330 3.0 5.0 0.00 0.00 0.00 63 1001.3
20260505072423 39 7 1.0 6.0 0.00 0.00 0.00 63 1001.4
20260505071919 40 250 2.0 7.0 0.00 0.00 0.00 62 1001.4
20260505071415 40 264 2.0 5.0 0.00 0.00 0.00 61 1001.2
20260505070914 41 335 0.0 4.0 0.00 0.00 0.00 61 1001.0
20260505070410 41 259 3.0 5.0 0.00 0.00 0.00 60 1001.2
20260505065906 41 327 4.0 7.0 0.00 0.00 0.00 59 1001.3
20260505065403 41 337 2.0 7.0 0.00 0.00 0.00 59 1001.0
20260505064859 41 8 1.0 6.0 0.00 0.00 0.00 59 1001.2
20260505064357 41 296 3.0 9.0 0.00 0.00 0.00 59 1001.3
20260505063855 41 49 2.0 7.0 0.00 0.00 0.00 59 1001.1
20260505063355 41 271 1.0 5.0 0.00 0.00 0.00 59 1001.2
20260505062852 41 307 3.0 9.0 0.00 0.00 0.00 60 1001.0
20260505062350 41 294 0.0 5.0 0.00 0.00 0.00 60 1001.3
20260505061846 41 223 1.0 6.0 0.00 0.00 0.00 60 1001.1
20260505061344 41 279 1.0 7.0 0.00 0.00 0.00 59 1001.0
20260505060842 41 353 1.0 5.0 0.00 0.00 0.00 59 1001.1
20260505060338 41 205 1.0 5.0 0.00 0.00 0.00 59 1001.4
20260505055834 41 241 0.0 4.0 0.00 0.00 0.00 58 1001.0
20260505055330 41 274 1.0 7.0 0.00 0.00 0.00 58 1001.0
20260505054828 42 306 2.0 6.0 0.00 0.00 0.00 58 1001.2
20260505054325 42 243 0.0 5.0 0.00 0.00 0.00 57 1001.1
20260505053823 42 75 2.0 5.0 0.00 0.00 0.00 57 1001.1
20260505053320 42 226 2.0 5.0 0.00 0.00 0.00 58 1001.2
20260505052817 42 286 4.0 7.0 0.00 0.00 0.00 58 1001.2
20260505052314 42 266 0.0 5.0 0.00 0.00 0.00 58 1001.1
20260505051811 42 142 0.0 5.0 0.00 0.00 0.00 57 1001.0
20260505051308 42 302 2.0 4.0 0.00 0.00 0.00 57 1000.8
20260505050806 42 219 0.0 7.0 0.00 0.00 0.00 57 1001.0
20260505050305 42 246 0.0 3.0 0.00 0.00 0.00 58 1001.0
20260505041734 44 298 4.0 10.0 0.00 0.00 0.00 54 1001.2
20260505041231 44 271 3.0 15.0 0.00 0.00 0.00 54 1001.0
20260505040729 44 317 3.0 17.0 0.00 0.00 0.00 53 1000.9
20260505040226 44 305 5.0 13.0 0.00 0.00 0.00 53 1001.0
20260505035723 44 352 4.0 10.0 0.00 0.00 0.00 53 1000.7
20260505035219 45 19 2.0 13.0 0.00 0.00 0.00 52 1000.7
20260505034716 45 302 7.0 13.0 0.00 0.00 0.00 52 1000.9
20260505034213 45 296 6.0 11.0 0.00 0.00 0.00 52 1000.9
20260505033709 46 307 6.0 16.0 0.00 0.00 0.00 51 1000.9
20260505033207 46 290 5.0 18.0 0.00 0.00 0.00 51 1000.6
20260505032705 46 281 3.0 13.0 0.00 0.00 0.00 52 1000.8
20260505032200 46 25 2.0 17.0 0.00 0.00 0.00 50 1001.0
20260505031658 47 327 10.0 22.0 0.00 0.00 0.00 51 1000.7
20260505031154 47 317 6.0 22.0 0.00 0.00 0.00 50 1001.0
20260505030651 47 271 4.0 17.0 0.00 0.00 0.00 51 1000.8
20260505030147 47 293 2.0 16.0 0.00 0.00 0.00 51 1000.5